Weather History for Pope Field Airport, NC

Change the Weather History Date:

Wednesday, June 12, 2013

  Actual Average Record
Temperature  
Mean Temperature 80 °F -  
Max Temperature 93 °F 87 °F 102 °F (2002)
Min Temperature 66 °F 66 °F 50 °F (1983)
Cooling Degree Days 14    
Growing Degree Days 30 (Base 50)    
Moisture  
Dew Point 67 °F    
Average Humidity 66    
Maximum Humidity 94    
Minimum Humidity 43    
Precipitation  
Precipitation 0.00 in - - ()
Sea Level Pressure  
Sea Level Pressure 29.95 in    
Wind  
Wind Speed 4 mph (West)    
Max Wind Speed 10 mph    
Max Gust Speed -    
Visibility 10 miles    
Events      
Averages and records for this station are not official NWS values.
T = Trace of Precipitation, MM = Missing Value Source: NWS Daily Summary

Daily Weather History Graph

Daily Weather History Graph

Search for Another Location

Airport:

Trip Planner

Search our weather history database for the weather conditions in past years. The results will help you decide how hot, cold, wet, or windy it might be!

Date:

Astronomy

Jun. 12, 2013 Rise Set
Actual Time 6:01 AM EDT 8:31 PM EDT
Civil Twilight 5:31 AM EDT 9:00 PM EDT
Nautical Twilight 4:54 AM EDT 9:37 PM EDT
Astronomical Twilight 4:14 AM EDT 10:18 PM EDT
Moon 9:32 AM EDT (6/12) 11:13 PM EDT (6/12)
Length of Visible Light 15h 29m
Length of Day
14h 30m
Waxing Crescent, 14% of the Moon is Illuminated
Jun 12
Waxing Crescent
Jun 16
First Quarter
Jun 23
Full
Jun 30
Last Quarter
Jul 8
New

Hourly Weather History & Observations

Time (EDT) Temp. Heat Index Dew Point Humidity Pressure Visibility Wind Dir Wind Speed Gust Speed Precip Events Conditions
12:58 AM 72.3 °F - 64.8 °F 77% 29.98 in 10.0 mi WNW 3.5 mph - N/A   Clear
1:58 AM 70.7 °F - 64.4 °F 80% 29.96 in 10.0 mi West 1.2 mph - N/A   Clear
2:58 AM 70.0 °F - 64.4 °F 82% 29.96 in 10.0 mi SW 2.3 mph - N/A   Clear
3:58 AM 68.2 °F - 64.2 °F 87% 29.96 in 10.0 mi WSW 2.3 mph - N/A   Clear
4:58 AM 67.8 °F - 64.0 °F 88% 29.96 in 10.0 mi WSW 2.3 mph - N/A   Clear
5:18 AM 68.0 °F - 64.4 °F 88% 29.97 in 7.0 mi WSW 3.5 mph - N/A   Clear
5:28 AM 66.2 °F - 64.4 °F 94% 29.97 in 10.0 mi WSW 3.5 mph - N/A   Clear
5:58 AM 67.5 °F - 63.9 °F 88% 29.98 in 10.0 mi WSW 2.3 mph - N/A   Clear
6:58 AM 68.9 °F - 64.6 °F 86% 30.00 in 10.0 mi West 2.3 mph - N/A   Clear
7:58 AM 73.4 °F - 65.7 °F 77% 30.01 in 10.0 mi WSW 2.3 mph - N/A   Clear
8:58 AM 80.6 °F 82.7 °F 66.2 °F 61% 30.01 in 10.0 mi West 4.6 mph - N/A   Clear
9:58 AM 84.4 °F 86.3 °F 65.5 °F 53% 29.99 in 10.0 mi Variable 3.5 mph - N/A   Clear
10:58 AM 87.4 °F 89.1 °F 64.9 °F 47% 29.99 in 10.0 mi West 5.8 mph - N/A   Clear
11:58 AM 88.9 °F 90.7 °F 65.1 °F 45% 29.98 in 6.0 mi WNW 6.9 mph - N/A   Haze
12:58 PM 89.6 °F 91.1 °F 64.2 °F 43% 29.98 in 10.0 mi WNW 9.2 mph - N/A   Mostly Cloudy
1:58 PM 90.7 °F 93.6 °F 66.4 °F 45% 29.96 in 10.0 mi West 10.4 mph - N/A   Scattered Clouds
2:58 PM 92.1 °F 95.7 °F 67.3 °F 44% 29.94 in 10.0 mi West 5.8 mph - N/A   Scattered Clouds
3:58 PM 92.7 °F 97.2 °F 68.4 °F 45% 29.93 in 10.0 mi West 8.1 mph - N/A   Partly Cloudy
4:58 PM 93.0 °F 97.9 °F 68.7 °F 45% 29.91 in 10.0 mi West 6.9 mph - N/A   Clear
5:58 PM 92.7 °F 98.3 °F 69.6 °F 47% 29.89 in 10.0 mi WNW 8.1 mph - N/A   Clear
6:58 PM 91.2 °F 97.5 °F 70.5 °F 51% 29.89 in 10.0 mi West 8.1 mph - N/A   Clear
7:58 PM 88.2 °F 95.0 °F 72.0 °F 59% 29.91 in 10.0 mi WSW 9.2 mph - N/A   Clear
8:58 PM 85.1 °F 91.8 °F 72.9 °F 67% 29.91 in 10.0 mi WSW 4.6 mph - N/A   Clear
9:58 PM 84.2 °F 90.3 °F 72.7 °F 68% 29.91 in 10.0 mi WSW 9.2 mph - N/A   Clear
10:58 PM 83.7 °F 89.4 °F 72.3 °F 69% 29.89 in 10.0 mi WSW 8.1 mph - N/A   Clear
11:58 PM 79.9 °F - 72.3 °F 78% 29.88 in 10.0 mi WSW 6.9 mph - N/A   Clear